Location: Cheyres
(46.8153°N, 6.7877°E)
Time: 11:59:19
(UTC+00:00)

Gbstr 26 Del rocket - Pass Details

Date: 24 September 2021
Orbit: 492 x 1263 km, 51.8° (Epoch: 18 October)

Event Time Altitude Azimuth Distance (km) Brightness Sun altitude
Rises 21:20:48 0° 242° (WSW) 3,985 7.3 -36.7°
Reaches altitude 10° 21:23:27 10° 242° (WSW) 3,100 6.7 -37.0°
Enters shadow 21:26:01 24° 243° (WSW) 2,282 5.9 -37.2°
